N427RC YMEN-YHML

Flight info

Callsign N427RC
Flight time 0h -44m
Altitude 12500
Route ESDAN DCT ML V126 ESDIG DCT HML
Aircraft C414/L-SBDFGRY/S

Departure

Time 2026-05-06 09:44
Airport Melbourne Essendon Airport (YMEN)

Arrival

Time 2026-05-06 08:59
Airport Hamilton Airport (YHML)
Time Latitude Longitude Altitude Speed Heading
2026-05-06 08:59 -37.64883 142.06017 783 ft 0 kts 91°
2026-05-06 09:00 -37.64887 142.06045 783 ft 10 kts 116°
2026-05-06 09:00 -37.64933 142.06144 785 ft 12 kts 108°
2026-05-06 09:00 -37.65011 142.06185 786 ft 18 kts 176°
2026-05-06 09:01 -37.65168 142.06180 786 ft 28 kts 176°
2026-05-06 09:01 -37.65366 142.06180 786 ft 15 kts 166°
2026-05-06 09:01 -37.65361 142.06203 785 ft 3 kts 360°
2026-05-06 09:01 -37.65200 142.06184 786 ft 53 kts 348°
2026-05-06 09:02 -37.64724 142.06182 784 ft 92 kts
2026-05-06 09:02 -37.64054 142.06299 997 ft 99 kts 357°
2026-05-06 09:02 -37.63351 142.06443 1265 ft 106 kts
2026-05-06 09:02 -37.62657 142.06685 1628 ft 117 kts 21°
2026-05-06 09:03 -37.62056 142.07401 1977 ft 130 kts 57°
2026-05-06 09:03 -37.61866 142.08463 2397 ft 132 kts 98°
2026-05-06 09:03 -37.62224 142.09462 2753 ft 134 kts 133°
2026-05-06 09:03 -37.62702 142.10471 3237 ft 133 kts 120°
2026-05-06 09:04 -37.63134 142.11404 3672 ft 121 kts 150°
2026-05-06 09:04 -37.63743 142.12072 4081 ft 121 kts 147°
2026-05-06 09:04 -37.64346 142.12780 4497 ft 120 kts 148°
2026-05-06 09:04 -37.64929 142.13507 4884 ft 125 kts 136°
2026-05-06 09:05 -37.65205 142.14549 5252 ft 134 kts 91°
2026-05-06 09:05 -37.65242 142.15657 5637 ft 134 kts 95°
2026-05-06 09:05 -37.65308 142.16839 6050 ft 135 kts 92°
2026-05-06 09:05 -37.65349 142.17997 6442 ft 134 kts 92°
2026-05-06 09:06 -37.65392 142.19139 6828 ft 135 kts 92°
2026-05-06 09:06 -37.65437 142.20307 7223 ft 136 kts 93°
2026-05-06 09:06 -37.65481 142.21459 7608 ft 136 kts 92°
2026-05-06 09:06 -37.65526 142.22621 7993 ft 137 kts 92°
2026-05-06 09:07 -37.65570 142.23800 8375 ft 137 kts 93°
2026-05-06 09:07 -37.65616 142.24983 8747 ft 137 kts 92°
2026-05-06 09:07 -37.65660 142.26148 9109 ft 138 kts 92°
2026-05-06 09:07 -37.65706 142.27340 9475 ft 139 kts 92°
2026-05-06 09:08 -37.65736 142.28133 9683 ft 145 kts 92°
2026-05-06 09:08 -37.65818 142.30077 9628 ft 193 kts 93°
2026-05-06 09:08 -37.65892 142.31844 9616 ft 215 kts 93°
2026-05-06 09:08 -37.65938 142.33083 9611 ft 225 kts 92°
2026-05-06 09:09 -37.66008 142.35047 9603 ft 237 kts 92°
2026-05-06 09:09 -37.66083 142.37118 9595 ft 243 kts 92°
2026-05-06 09:09 -37.66161 142.39188 9592 ft 247 kts 92°
2026-05-06 09:09 -37.66240 142.41325 9591 ft 249 kts 92°
2026-05-06 09:10 -37.66320 142.43481 9591 ft 250 kts 92°
2026-05-06 09:10 -37.66396 142.45593 9591 ft 251 kts 92°
2026-05-06 09:10 -37.66475 142.47753 9591 ft 251 kts 92°
2026-05-06 09:10 -37.66552 142.49871 9587 ft 251 kts 92°
2026-05-06 09:11 -37.66629 142.52031 9579 ft 251 kts 92°
2026-05-06 09:11 -37.66709 142.54197 9577 ft 251 kts 92°
2026-05-06 09:11 -37.66786 142.56355 9579 ft 251 kts 92°
2026-05-06 09:11 -37.66863 142.58517 9579 ft 251 kts 92°
2026-05-06 09:12 -37.66939 142.60638 9577 ft 250 kts 92°
2026-05-06 09:12 -37.67014 142.62807 9579 ft 251 kts 92°
2026-05-06 09:12 -37.67087 142.64973 9581 ft 252 kts 92°
2026-05-06 09:12 -37.67164 142.67142 9579 ft 251 kts 92°
2026-05-06 09:13 -37.67239 142.69272 9581 ft 251 kts 92°
2026-05-06 09:13 -37.67313 142.71430 9583 ft 250 kts 92°
2026-05-06 09:13 -37.67384 142.73499 9582 ft 250 kts 92°
2026-05-06 09:13 -37.67459 142.75717 9590 ft 251 kts 92°
2026-05-06 09:14 -37.67533 142.77885 9592 ft 251 kts 92°
2026-05-06 09:14 -37.67607 142.80046 9624 ft 249 kts 92°
2026-05-06 09:14 -37.67678 142.82175 9708 ft 246 kts 92°
2026-05-06 09:14 -37.67746 142.84239 9781 ft 244 kts 92°
2026-05-06 09:15 -37.67815 142.86318 9858 ft 243 kts 92°
2026-05-06 09:15 -37.67885 142.88399 9931 ft 244 kts 92°
2026-05-06 09:15 -37.67951 142.90445 10000 ft 245 kts 92°
2026-05-06 09:15 -37.68019 142.92544 10073 ft 245 kts 93°
2026-05-06 09:16 -37.68088 142.94622 10145 ft 247 kts 93°
2026-05-06 09:16 -37.68156 142.96755 10232 ft 248 kts 93°
2026-05-06 09:16 -37.68224 142.98890 10305 ft 249 kts 92°
2026-05-06 09:16 -37.68291 143.00997 10396 ft 248 kts 92°
2026-05-06 09:17 -37.68360 143.03141 10475 ft 249 kts 92°
2026-05-06 09:17 -37.68427 143.05218 10549 ft 249 kts 92°
2026-05-06 09:17 -37.68495 143.07369 10572 ft 251 kts 92°
2026-05-06 09:17 -37.68561 143.09524 10579 ft 254 kts 92°
2026-05-06 09:18 -37.68629 143.11701 10581 ft 255 kts 92°
2026-05-06 09:18 -37.68696 143.13855 10582 ft 257 kts 92°
2026-05-06 09:18 -37.68765 143.16087 10581 ft 257 kts 92°
2026-05-06 09:18 -37.68832 143.18297 10580 ft 256 kts 92°
2026-05-06 09:19 -37.68897 143.20470 10580 ft 256 kts 92°
2026-05-06 09:19 -37.68964 143.22685 10580 ft 256 kts 92°
2026-05-06 09:19 -37.69030 143.24874 10584 ft 256 kts 92°
2026-05-06 09:19 -37.69094 143.27042 10580 ft 255 kts 92°
2026-05-06 09:20 -37.69158 143.29251 10581 ft 255 kts 92°
2026-05-06 09:20 -37.69217 143.31411 10579 ft 253 kts 91°
2026-05-06 09:20 -37.69280 143.33589 10573 ft 251 kts 92°
2026-05-06 09:20 -37.69639 143.35657 10570 ft 248 kts 117°
2026-05-06 09:21 -37.70587 143.37435 10569 ft 243 kts 136°
2026-05-06 09:21 -37.71679 143.38950 10567 ft 241 kts 139°
2026-05-06 09:21 -37.72819 143.40479 10570 ft 241 kts 139°
2026-05-06 09:21 -37.73954 143.41991 10575 ft 241 kts 139°
2026-05-06 09:22 -37.75064 143.43475 10574 ft 240 kts 139°
2026-05-06 09:22 -37.76196 143.44981 10570 ft 239 kts 139°
2026-05-06 09:22 -37.77309 143.46462 10572 ft 239 kts 139°
2026-05-06 09:22 -37.78424 143.47949 10570 ft 239 kts 139°
2026-05-06 09:23 -37.79551 143.49448 10573 ft 239 kts 139°
2026-05-06 09:23 -37.80656 143.50924 10578 ft 239 kts 139°
2026-05-06 09:23 -37.81781 143.52419 10574 ft 237 kts 139°
2026-05-06 09:23 -37.82877 143.53876 10566 ft 237 kts 139°
2026-05-06 09:24 -37.83983 143.55348 10565 ft 236 kts 139°
2026-05-06 09:24 -37.85079 143.56808 10562 ft 237 kts 139°
2026-05-06 09:24 -37.86199 143.58301 10565 ft 238 kts 138°
2026-05-06 09:24 -37.87323 143.59800 10562 ft 239 kts 138°
2026-05-06 09:25 -37.88431 143.61278 10568 ft 239 kts 138°
2026-05-06 09:25 -37.89555 143.62781 10563 ft 240 kts 138°
2026-05-06 09:25 -37.90676 143.64283 10572 ft 240 kts 138°
2026-05-06 09:25 -37.91797 143.65780 10571 ft 238 kts 138°
2026-05-06 09:26 -37.92866 143.67204 10567 ft 239 kts 139°
2026-05-06 09:26 -37.94010 143.68733 10573 ft 239 kts 138°
2026-05-06 09:26 -37.95121 143.70228 10572 ft 237 kts 138°
2026-05-06 09:26 -37.96190 143.71663 10571 ft 236 kts 138°
2026-05-06 09:27 -37.97300 143.73147 10565 ft 237 kts 138°
2026-05-06 09:27 -37.98388 143.74608 10568 ft 239 kts 138°
2026-05-06 09:27 -37.99530 143.76140 10568 ft 239 kts 138°
2026-05-06 09:27 -38.00657 143.77652 10568 ft 240 kts 138°
2026-05-06 09:28 -38.01761 143.79135 10570 ft 240 kts 138°
2026-05-06 09:28 -38.02886 143.80651 10570 ft 240 kts 138°
2026-05-06 09:28 -38.03978 143.82118 10571 ft 240 kts 138°
2026-05-06 09:28 -38.05100 143.83624 10571 ft 240 kts 138°
2026-05-06 09:29 -38.06194 143.85094 10571 ft 240 kts 138°
2026-05-06 09:29 -38.07310 143.86594 10567 ft 240 kts 138°
2026-05-06 09:29 -38.08436 143.88110 10571 ft 240 kts 138°
2026-05-06 09:29 -38.09528 143.89582 10569 ft 240 kts 138°
2026-05-06 09:30 -38.10656 143.91103 10572 ft 240 kts 137°
2026-05-06 09:30 -38.11783 143.92622 10568 ft 240 kts 137°
2026-05-06 09:30 -38.12906 143.94136 10572 ft 240 kts 137°
2026-05-06 09:30 -38.13975 143.95581 10569 ft 241 kts 137°
2026-05-06 09:31 -38.15137 143.97150 10573 ft 241 kts 137°
2026-05-06 09:31 -38.16267 143.98676 10570 ft 241 kts 137°
2026-05-06 09:31 -38.17373 144.00172 10572 ft 241 kts 138°
2026-05-06 09:31 -38.18503 144.01699 10575 ft 241 kts 137°
2026-05-06 09:32 -38.19593 144.03176 10575 ft 241 kts 137°
2026-05-06 09:32 -38.20707 144.04687 10575 ft 241 kts 137°
2026-05-06 09:32 -38.21845 144.06227 10577 ft 241 kts 137°
2026-05-06 09:32 -38.22952 144.07728 10569 ft 241 kts 137°
2026-05-06 09:33 -38.24081 144.09259 10573 ft 241 kts 137°
2026-05-06 09:33 -38.25229 144.10817 10577 ft 241 kts 137°
2026-05-06 09:33 -38.26358 144.12359 10577 ft 242 kts 137°
2026-05-06 09:33 -38.27444 144.13859 10574 ft 242 kts 137°
2026-05-06 09:34 -38.28573 144.15430 10581 ft 242 kts 136°
2026-05-06 09:34 -38.29686 144.16989 10578 ft 242 kts 136°
2026-05-06 09:34 -38.30774 144.18529 10577 ft 242 kts 136°
2026-05-06 09:34 -38.31880 144.20105 10583 ft 243 kts 136°
2026-05-06 09:35 -38.32964 144.21666 10580 ft 243 kts 135°
2026-05-06 09:35 -38.34043 144.23236 10581 ft 243 kts 135°
2026-05-06 09:35 -38.35116 144.24849 10576 ft 244 kts 129°
2026-05-06 09:35 -38.35786 144.26752 10564 ft 247 kts 102°
2026-05-06 09:36 -38.35791 144.28860 10565 ft 244 kts 75°
2026-05-06 09:36 -38.35137 144.30735 10565 ft 236 kts 47°
2026-05-06 09:36 -38.33945 144.32056 10567 ft 223 kts 20°
2026-05-06 09:36 -38.32545 144.32523 10563 ft 209 kts 353°
2026-05-06 09:37 -38.31183 144.32390 10569 ft 205 kts 346°
2026-05-06 09:37 -38.29804 144.32165 10572 ft 205 kts 345°
2026-05-06 09:37 -38.28455 144.31937 10574 ft 205 kts 345°
2026-05-06 09:37 -38.27075 144.31702 10478 ft 209 kts 345°
2026-05-06 09:38 -38.25626 144.31614 10071 ft 222 kts 355°
2026-05-06 09:38 -38.24109 144.31878 9649 ft 230 kts
2026-05-06 09:38 -38.22573 144.32512 9218 ft 233 kts 18°
2026-05-06 09:38 -38.21249 144.33534 8813 ft 236 kts 31°
2026-05-06 09:39 -38.20005 144.34842 8396 ft 234 kts 34°
2026-05-06 09:39 -38.18796 144.36096 7992 ft 231 kts 32°
2026-05-06 09:39 -38.17553 144.37299 7590 ft 230 kts 31°
2026-05-06 09:39 -38.16317 144.38488 7188 ft 229 kts 31°
2026-05-06 09:40 -38.15102 144.39670 6790 ft 228 kts 32°
2026-05-06 09:40 -38.13870 144.40872 6392 ft 227 kts 32°
2026-05-06 09:40 -38.11429 144.43243 5588 ft 225 kts 32°
2026-05-06 09:41 -38.10265 144.44377 5549 ft 210 kts 31°
2026-05-06 09:41 -38.09161 144.45453 5553 ft 201 kts 31°
2026-05-06 09:41 -38.08090 144.46486 5554 ft 196 kts 30°
2026-05-06 09:41 -38.07054 144.47489 5555 ft 195 kts 31°
2026-05-06 09:42 -38.05973 144.48535 5554 ft 200 kts 31°
2026-05-06 09:42 -38.04912 144.49561 5555 ft 202 kts 31°
2026-05-06 09:42 -38.03822 144.50620 5558 ft 203 kts 31°
2026-05-06 09:42 -38.02733 144.51677 5561 ft 205 kts 31°
2026-05-06 09:43 -38.01626 144.52749 5562 ft 205 kts 31°
2026-05-06 09:43 -38.00507 144.53833 5495 ft 208 kts 31°
2026-05-06 09:43 -37.99403 144.54894 5336 ft 214 kts 31°
2026-05-06 09:43 -37.98244 144.56019 5176 ft 216 kts 32°
2026-05-06 09:44 -37.97098 144.57132 5016 ft 216 kts 32°
2026-05-06 09:44 -37.95927 144.58265 4841 ft 216 kts 31°
2026-05-06 09:44 -37.94776 144.59375 4677 ft 216 kts 32°
2026-05-06 09:44 -37.93579 144.60532 4511 ft 216 kts 31°
2026-05-06 09:45 -37.92403 144.61667 4345 ft 215 kts 32°
2026-05-06 09:45 -37.91275 144.62755 4191 ft 215 kts 32°
2026-05-06 09:45 -37.90120 144.63871 4022 ft 210 kts 32°
2026-05-06 09:45 -37.89019 144.64935 3862 ft 207 kts 31°
2026-05-06 09:46 -37.87917 144.65995 3694 ft 205 kts 31°
2026-05-06 09:46 -37.86822 144.67050 3518 ft 203 kts 31°
2026-05-06 09:46 -37.85749 144.68082 3359 ft 202 kts 31°
2026-05-06 09:46 -37.84660 144.69133 3187 ft 201 kts 31°
2026-05-06 09:47 -37.83585 144.70167 3008 ft 200 kts 31°
2026-05-06 09:47 -37.82526 144.71180 2840 ft 199 kts 32°
2026-05-06 09:47 -37.81423 144.72248 2658 ft 200 kts 32°
2026-05-06 09:47 -37.80345 144.73280 2585 ft 194 kts 32°
2026-05-06 09:48 -37.79304 144.74283 2547 ft 193 kts 32°
2026-05-06 09:48 -37.78261 144.75279 2493 ft 191 kts 32°
2026-05-06 09:48 -37.77258 144.76245 2493 ft 189 kts 32°
2026-05-06 09:48 -37.76247 144.77212 2489 ft 187 kts 32°
2026-05-06 09:49 -37.75244 144.78178 2489 ft 187 kts 32°
2026-05-06 09:49 -37.74255 144.79130 2481 ft 180 kts 32°
2026-05-06 09:49 -37.73308 144.80041 2478 ft 169 kts 31°
2026-05-06 09:49 -37.72435 144.80877 2479 ft 163 kts 31°
2026-05-06 09:50 -37.71555 144.81716 2479 ft 159 kts 32°
2026-05-06 09:50 -37.70712 144.82523 2479 ft 155 kts 31°
2026-05-06 09:50 -37.69880 144.83320 2478 ft 149 kts 30°
2026-05-06 09:50 -37.69077 144.84087 2478 ft 145 kts 31°
2026-05-06 09:51 -37.68342 144.84793 2476 ft 130 kts 30°
2026-05-06 09:51 -37.67663 144.85442 2480 ft 119 kts 30°
2026-05-06 09:51 -37.67030 144.86044 2477 ft 117 kts 28°
2026-05-06 09:51 -37.66395 144.86649 2477 ft 116 kts 28°
2026-05-06 09:52 -37.65763 144.87253 2504 ft 114 kts 28°
2026-05-06 09:52 -37.65162 144.87879 2449 ft 122 kts 46°
2026-05-06 09:52 -37.64942 144.88906 2372 ft 127 kts 102°
2026-05-06 09:52 -37.65355 144.89745 2298 ft 115 kts 156°
2026-05-06 09:53 -37.66061 144.89933 2238 ft 101 kts 194°
2026-05-06 09:53 -37.66745 144.89900 2163 ft 101 kts 189°
2026-05-06 09:53 -37.67416 144.89904 2109 ft 95 kts 190°
2026-05-06 09:53 -37.68056 144.89917 2044 ft 93 kts 189°
2026-05-06 09:54 -37.68686 144.89939 1967 ft 92 kts 189°
2026-05-06 09:54 -37.69311 144.89962 1833 ft 96 kts 188°
2026-05-06 09:54 -37.70005 144.89992 1466 ft 108 kts 186°
2026-05-06 09:54 -37.70707 144.90030 935 ft 104 kts 186°
2026-05-06 09:55 -37.71391 144.90057 531 ft 97 kts 186°
2026-05-06 09:55 -37.71988 144.90092 324 ft 84 kts 190°
2026-05-06 09:55 -37.72487 144.90085 268 ft 58 kts 170°
2026-05-06 09:55 -37.72759 144.90099 253 ft 23 kts 204°
2026-05-06 09:56 -37.72782 144.90059 253 ft 0 kts 263°
2026-05-06 09:56 -37.72779 144.90018 254 ft 9 kts 287°
2026-05-06 09:56 -37.72771 144.89975 256 ft 6 kts 282°
2026-05-06 09:56 -37.72766 144.89932 257 ft 6 kts 264°
2026-05-06 09:57 -37.72791 144.89896 257 ft 0 kts 208°